{"data":{"norad_id":68204,"intl_designator":"2026-052G","name":"2026-052G","alt_names":[],"object_type":"PAYLOAD","status":"ACTIVE","operator":null,"country":"PRC","launch_date":"2026-03-16","launch_site_code":"JSC","launch_vehicle":null,"mission":null,"orbit_class":"UNKNOWN","rcs_meters":null,"size_class":null,"mass_kg":null,"dimensions":null,"purposes":[],"wikipedia_slug":null,"has_3d_model":false,"image_url":null,"decayed_at":null,"tle_current":{"epoch":"2026-05-25T03:34:06.967200Z","epoch_age_seconds":69145,"freshness":"FRESH","line1":"1 68204U 26052G   26145.14869175  .00003948  00000+0  23754-3 0  9991","line2":"2 68204  97.5334 220.3629 0010912  36.4771 323.7201 15.11366323 10570","mean_motion":15.11366323,"eccentricity":0.0010912,"inclination_deg":97.5334,"raan_deg":220.3629,"arg_perigee_deg":36.4771,"mean_anomaly_deg":323.7201,"bstar":0.00023754,"rev_number":1057,"period_min":95.27802612021,"perigee_km":524.4918119653,"apogee_km":539.57256520247,"semimajor_km":6910.1691885839,"source":"CELESTRAK","updated_at":"2026-05-25T13:38:07.643853Z"}}}